Location: ??????
(38.5153°N, 23.0340°E)
Time: 13:41:33
(UTC+00:00)

ARIANE 5 R/B - Pass Details

Date: 13 December 2025
Orbit: 747 x 792 km, 98.8° (Epoch: 17 January)

Event Time Altitude Azimuth Distance (km) Brightness Sun altitude
Rises 16:02:23 0° 162° (SSE) 3,200 5.8 -10.5°
Reaches altitude 10° 16:04:39 10° 161° (SSE) 2,285 5.0 -11.0°
Maximum altitude 16:09:41 81° 75° (ENE) 783 2.4 -11.9°
Drops below altitude 10° 16:14:49 10° 349° (N) 2,330 4.9 -12.8°
Sets 16:17:09 0° 348° (NNW) 3,269 5.7 -13.3°
